Location: Aranbee
(34.0885°N, 118.2342°W)
Time: 02:30:48
(UTC+00:00)

Courier 1B - Visible Passes

Search period start: 04 December 2021 00:00
Search period end: 14 December 2021 00:00
Orbit: 962 x 1209 km, 28.3° (Epoch: 03 December)

Date Brightness Start Highest point End Pass type
(mag) Time Alt. Az. Time Alt. Az. Time Alt. Az.
04 Dec 8.4 01:18:52 10° WSW 01:26:04 51° S 01:32:50 10° E visible
04 Dec 8.0 03:12:59 10° W 03:19:56 52° S 03:20:09 51° S visible
05 Dec 8.2 02:19:00 10° WSW 02:26:10 55° S 02:29:51 27° ESE visible
05 Dec 9.4 04:13:28 10° W 04:16:46 25° WSW 04:16:46 25° WSW visible
06 Dec 8.3 01:25:01 10° WSW 01:32:21 56° S 01:39:15 10° ESE visible
06 Dec 8.3 03:19:22 10° W 03:26:11 44° SSW 03:26:31 43° S visible
07 Dec 8.4 02:25:19 10° W 02:32:26 49° S 02:36:20 25° SE visible
07 Dec 9.6 04:20:13 10° WSW 04:23:15 21° WSW 04:23:15 21° WSW visible
08 Dec 8.4 01:31:16 10° W 01:38:38 54° S 01:45:34 10° ESE visible
08 Dec 8.8 03:25:56 10° W 03:32:21 33° SSW 03:33:08 32° S visible
09 Dec 8.7 02:31:45 10° W 02:38:38 40° SSW 02:43:07 19° SE visible
09 Dec 9.9 04:27:35 10° WSW 04:30:02 16° SW 04:30:02 16° SW visible
10 Dec 8.7 01:37:37 10° W 01:44:52 46° SSW 01:51:42 10° ESE visible
10 Dec 9.4 03:32:51 10° WSW 03:38:23 23° SSW 03:40:08 21° S visible
11 Dec 9.3 02:38:24 10° W 02:44:44 30° SSW 02:50:19 12° SSE visible
12 Dec 9.2 01:44:07 10° W 01:51:00 36° SSW 01:57:32 10° SE visible
12 Dec 10.0 03:40:43 10° WSW 03:44:21 14° SSW 03:47:37 11° S visible
13 Dec 9.9 02:45:35 10° WSW 02:50:43 20° SSW 02:55:41 10° SSE visible
